Weather Roundup
Issued by NWS Corpus Christi, TX

Home | Current Version | Previous Version | Text Only | Print | Product List | Glossary On
Versions: 1 2 3 4 5 6 7 8 9 10 11 12 13 14 15 16 17 18 19 20 21 22 23 24 25 26 27 28 29 30 31 32 33 34 35 36 37 38 39 40 41 42 43 44 45 46 47 48 49 50
000
ASUS44 KCRP 051110
HRRCRP

SOUTH TEXAS REGIONAL WEATHER ROUNDUP
NATIONAL WEATHER SERVICE CORPUS CHRISTI TX
500 AM CST THU MAR 05 2015


TXZ229>244-051200-
...CORPUS CHRISTI AREA OBSERVATIONS...

CITY           SKY/WX    TMP DP  RH WIND       PRES   REMARKS
CORPUS CHRISTI CLOUDY    41  36  82 N23G35    30.21R
NAS CORPUS CHR CLOUDY    41  39  93 N29G38    30.19R
ROCKPORT       CLOUDY    41  36  82 N29       30.20R
KINGSVILLE NAS CLOUDY    42  39  89 N26G35    30.22R
ALICE          CLOUDY    41  36  82 N21G33    30.23R
FALFURRIAS     CLOUDY    43  37  79 N25G33    30.22R
$$

...VICTORIA AREA OBSERVATIONS...

CITY           SKY/WX    TMP DP  RH WIND       PRES   REMARKS
VICTORIA       CLOUDY    38  34  85 N20G33    30.24R WCI  28
BEEVILLE       CLOUDY    38  37  92 N21G32    30.24R WCI  28
PLEASANTON     CLOUDY    38  32  80 N17G25    30.30R WCI  28
SAN ANTONIO    CLOUDY    34  28  79 N18G33    30.29R WCI  23
$$

...LAREDO AREA OBSERVATIONS...

CITY           SKY/WX    TMP DP  RH WIND       PRES   REMARKS
LAREDO         LGT RAIN  42  39  89 NW20G31   30.31R
COTULLA        LGT RAIN  42  36  79 N15       30.32R
DEL RIO        CLOUDY    35  26  69 NW16G24   30.43R WCI  25
MCALLEN        LGT RAIN  44  42  93 N25G35    30.20R FOG
HEBBRONVILLE   LGT RAIN N/A N/A N/A NW22G31   30.23R
$$

...OTHER TEXAS OBSERVATIONS...

CITY           SKY/WX    TMP DP  RH WIND       PRES   REMARKS
BROWNSVILLE    LGT RAIN  45  43  93 N20G33    30.11R
HOUSTON        CLOUDY    41  37  86 N23G33    30.19R
COL. STATION   CLOUDY    34  31  88 N21G31    30.31R WCI  22
AUSTIN         FRZ RAIN  32  29  88 N20G30    30.34R WCI  20
WACO           CLOUDY    28  25  88 N20       30.40R WCI  15
FORT WORTH     MOCLDY    25  19  78 N16       30.45R WCI  12
WICHITA FALLS  CLEAR     17  13  84 NW9       30.52R
LUBBOCK        CLOUDY    24  18  77 NW8       30.45R
EL PASO        CLOUDY    34  22  61 E13       30.31S WCI  25
$$

...MARINE OBSERVATIONS...

STATION/POSITION TIME  SKY/WX   TEMP    WIND        PRES    VSBY  WAVE   SWELL
                                AIR SEA DIR/SP/G                  HT/PER HT/PER
                 (UTC)          (F)     (DEG/KT/KT) (MB)    (MI)  (FT/S) (FT/S)
PORT ARANSAS     1100            42 56  350/ 23/ 28 1022.3R
BUOY 90 E PORT A 1100            55 68  360/ 31/ 37 1017.5R        10/ 7
BUOY 45 SE BAFFI 1100            51 66  360/ 29/ 37 1017.9R        11/ 8
BUOY 200 E PT IS 1100            72 71  300/  8/  8 1014.0R         4/ 7   3/ 7
BUOY 15 E GALVES 1100            45 58   10/ 29/ 35 1018.6R         8/ 6
$$


USA.gov is the U.S. government's official web portal to all federal, state and local government web resources and services.